Flag for Mexico Weather past 2 weeks in Mexicali, Baja California, Mexico

Now
66 °F

Clear.


Feels Like: 66 °F
Forecast: 62 / 94 °F
Wind: 6 mph from Southeast

Location: Imperial County Airport


UV Index: 7 (High)

Visibility: 10 mi


Pressure: 29.95 "Hg

Humidity: 73%

Dew point: 57 °F

Location of MexicaliLocation

Historic Weather in Mexicali

°F

Mexicali temperature yesterday

Maximum temperature yesterday: 89 °F (at 4:53 PM)
Minimum temperature yesterday: 61 °F (at 4:53 AM)
Average temperature yesterday: 77 °F

Past Weeks' High & Low Weather Summary

 TemperatureHumidityPressure
High98 °F (Apr 9, 2:53 PM)73% (Apr 20, 6:53 AM)30.11 "Hg (Apr 20, 6:53 AM)
Low53 °F (Apr 6, 4:53 AM)4% (Apr 10, 2:53 PM)29.61 "Hg (Apr 16, 6:53 PM)
Average75 °F29%29.85 "Hg
* Reported Apr 5 6:53 AM — Apr 20 6:53 AM, Mexicali, Weather by CustomWeather, © 2014

Note: Actual official high and low records may vary slightly from our data, if they occured in-between our weather recording intervals... More about our weather records

Advertising

Historic Weather Conditions — Data for Previous 24 hours

 ConditionsComfort  
Time TempWeatherWind HumidityBarometerVisibility
6:53 AM
Apr 20
66 °FClear.6 mph73%29.95 "Hg10 mi
5:53 AM65 °FClear.5 mph68%29.93 "Hg10 mi
4:53 AM67 °FClear.6 mph59%29.92 "Hg10 mi
3:53 AM67 °FClear.6 mph55%29.92 "Hg10 mi
2:53 AM68 °FClear.3 mph51%29.91 "Hg10 mi
1:53 AM72 °FClear.5 mph44%29.91 "Hg10 mi
12:53 AM73 °FClear.6 mph40%29.91 "Hg10 mi
11:53 PM
Apr 19
76 °FClear.7 mph35%29.90 "Hg10 mi
10:53 PM77 °FClear.8 mph32%29.90 "Hg10 mi
9:53 PM78 °FClear.7 mph30%29.89 "Hg10 mi
8:53 PM80 °FClear.5 mph26%29.87 "Hg10 mi
7:53 PM83 °FSunny.5 mph24%29.85 "Hg10 mi
6:53 PM86 °FSunny.5 mph20%29.83 "Hg10 mi
5:53 PM88 °FSunny.5 mph18%29.83 "Hg10 mi
4:53 PM89 °FSunny.6 mph19%29.83 "Hg10 mi
3:53 PM88 °FSunny.7 mph21%29.84 "Hg10 mi
2:53 PM88 °FSunny.7 mph21%29.86 "Hg10 mi
1:53 PM87 °FSunny.9 mph24%29.88 "Hg10 mi
12:53 PM84 °FSunny.9 mph27%29.90 "Hg10 mi
11:53 AM83 °FSunny.No wind31%29.92 "Hg10 mi
10:53 AM82 °FSunny.7 mph32%29.93 "Hg10 mi
9:53 AM79 °FSunny.No wind34%29.92 "Hg10 mi
8:53 AM75 °FSunny.No wind42%29.89 "Hg10 mi
Weather by CustomWeather, © 2014

See weather overview